Regional Weather Roundup
Issued by NWS

Home | Current Version | Previous Version | Graphics & Text | Print | Product List | Glossary On
Versions: 1 2 3 4 5 6 7 8 9 10 11 12 13 14 15 16 17 18 19 20 21 22 23 24 25 26 27
000
ASUS45 KSLC 271710
RWRUT

UTAH REGIONAL WEATHER ROUNDUP
NATIONAL WEATHER SERVICE SALT LAKE CITY UT
1100 AM MDT WED APR 27 2016

UTZ001>011-023>025-271800-

NORTHERN UTAH

CITY           SKY/WX    TMP DP  RH WIND       PRES   REMARKS
BRIGHAM CITY   CLOUDY    51  38  61 N5        29.87F
HILL AFB       PTSUNNY   51  38  61 CALM      29.86F
LOGAN          CLOUDY    50  41  71 NE3       29.87F
OGDEN          PTSUNNY   53  38  56 E6        29.85F
PROVO AIRPORT  PTSUNNY   52  39  62 CALM      29.87F
SALT LAKE CITY PTSUNNY   56  40  55 NW5       29.85F
VERNAL         PTSUNNY   50  35  56 SE8       29.88S
WENDOVER       CLOUDY    50  36  57 SE9       29.87S
HEBER CITY     PTSUNNY   45  36  70 CALM      29.88S

$$

UTZ012>022-026-027-271800-

SOUTHERN/CENTRAL UTAH

CITY           SKY/WX    TMP DP  RH WIND       PRES   REMARKS
BLANDING       MOSUNNY   51  35  54 CALM      29.97F
BRYCE CANYON   CLOUDY    43  29  57 W8        29.93S
CEDAR CITY     CLOUDY    51  36  56 SW10      29.87F
DELTA          CLOUDY    50  37  62 S3        29.87S
HANKSVILLE     PTSUNNY   52  37  58 CALM      29.89F
MILFORD        CLOUDY    50  41  71 S13       29.87S
MOAB/CYNLANDS  PTSUNNY   54  43  66 CALM      29.86F
PRICE          MOSUNNY   46  36  68 SE3       29.88F
ST GEORGE      MOSUNNY   57  39  51 S5        29.85F

$$

REGIONAL REPORTS     COLORADO/ARIZONA

CITY           SKY/WX    TMP DP  RH WIND       PRES   REMARKS
CRAIG, CO      CLOUDY    46  34  62 W13       29.87F
GRAND JUNCTION PTSUNNY   49  37  63 N3        29.88F
RIFLE          PTSUNNY   48  35  60 VRB3      29.88F
MONTROSE       SUNNY     49  34  56 MISG      29.90F
CORTEZ         MOSUNNY   53  32  44 W6        29.90F
PAGE, AZ       CLOUDY    60  34  37 N8        29.86F
GRAND CANYON   MOSUNNY   52  26  36 W10       29.95F
KINGMAN        MOSUNNY   68  25  19 SW18G29   29.84F
FLAGSTAFF      CLOUDY    52  26  36 SW14      29.95S

$$

REGIONAL REPORTS    NEVADA/IDAHO/WYOMING

CITY           SKY/WX    TMP DP  RH WIND       PRES   REMARKS
LAS VEGAS, NV  PTSUNNY   67  24  19 S12       29.75S
ELY            LGT RAIN  38  34  85 VRB7      29.89F WCI  33
ELKO           CLOUDY    43  32  65 SW6       29.89F
POCATELLO, ID  CLOUDY    50  38  63 CALM      29.88F
BURLEY         CLOUDY    50  35  56 CALM      29.85F
EVANSTON, WY   CLOUDY    41  31  67 CALM      29.88F
ROCK SPRINGS   MOSUNNY   36  29  75 W5        29.89S WCI  32
KEMMERER       CLOUDY    37  32  81 W14       29.89S WCI  29

$$




USA.gov is the U.S. government's official web portal to all federal, state and local government web resources and services.